SYRACUSE 3A

Last updated on Tue Oct 14 2025 00:02:45 GMT+0000 (Coordinated Universal Time)

1 28885U 05041B 25286.56503344 .00000119 00000+0 00000+0 0 9993 2 28885 4.0102 78.8938 0003430 129.5753 39.1299 1.00270789 73271
UTC large
Height (km)
Speed (km/s)
/
Latitude / Longitude
Inclination (degrees)
Orbital Period (minutes)
Azimuth
Elevation
Range (km)
Doppler Factor

Next 0 passes for location: London (51.5072 / 0.1276)

Sorry there are no passes over London.